Time,TemperatureF,DewpointF,PressureIn,WindDirection,WindDirectionDegrees,WindSpeedMPH,WindSpeedGustMPH,Humidity,HourlyPrecipIn,Conditions,Clouds,dailyrainin,SolarRadiationWatts/m^2,SoftwareType,DateUTC
2013-07-05 00:09:00,59.3,53.1,29.97,West,260,0.0,0.0,80,0.00,,,0.00,0,Wunderground v.1.15,2013-07-05 07:09:00,
2013-07-05 00:19:00,59.0,53.2,29.97,West,260,0.0,0.0,81,0.00,,,0.00,0,Wunderground v.1.15,2013-07-05 07:19:00,
2013-07-05 00:29:00,58.9,52.7,29.97,West,260,0.0,0.0,80,0.00,,,0.00,0,Wunderground v.1.15,2013-07-05 07:29:00,
2013-07-05 00:39:00,58.7,52.9,29.97,West,260,0.0,0.0,81,0.00,,,0.00,0,Wunderground v.1.15,2013-07-05 07:39:00,
2013-07-05 00:49:00,58.9,52.4,29.97,West,260,0.0,0.0,79,0.00,,,0.00,0,Wunderground v.1.15,2013-07-05 07:49:00,
2013-07-05 01:00:00,59.0,52.1,29.97,West,260,0.0,0.0,78,0.00,,,0.00,0,Wunderground v.1.15,2013-07-05 08:00:00,
2013-07-05 01:08:00,59.0,52.5,29.97,WSW,244,0.0,0.0,79,0.00,,,0.00,0,Wunderground v.1.15,2013-07-05 08:08:00,
2013-07-05 01:19:00,58.9,52.4,29.97,WSW,244,0.0,0.0,79,0.00,,,0.00,0,Wunderground v.1.15,2013-07-05 08:19:00,
2013-07-05 01:29:00,58.7,52.2,29.97,WSW,244,0.0,0.0,79,0.00,,,0.00,0,Wunderground v.1.15,2013-07-05 08:29:00,
2013-07-05 01:39:00,58.6,52.4,29.97,WSW,244,0.0,0.0,80,0.00,,,0.00,0,Wunderground v.1.15,2013-07-05 08:39:00,
2013-07-05 01:49:00,58.4,52.3,29.97,WSW,244,0.0,0.0,80,0.00,,,0.00,0,Wunderground v.1.15,2013-07-05 08:49:00,
2013-07-05 01:59:00,58.1,52.3,29.97,WSW,244,0.0,0.0,81,0.00,,,0.00,0,Wunderground v.1.15,2013-07-05 08:59:00,
2013-07-05 02:09:00,57.6,52.1,29.97,WSW,244,0.0,0.0,82,0.00,,,0.00,0,Wunderground v.1.15,2013-07-05 09:09:00,
2013-07-05 02:19:00,57.2,52.1,29.97,WSW,244,0.0,0.0,83,0.00,,,0.00,0,Wunderground v.1.15,2013-07-05 09:19:00,
2013-07-05 02:34:00,56.7,51.9,29.97,WSW,244,0.0,0.0,84,0.00,,,0.00,0,Wunderground v.1.15,2013-07-05 09:34:00,
2013-07-05 02:39:00,56.5,51.7,29.97,WSW,244,0.0,0.0,84,0.00,,,0.00,0,Wunderground v.1.15,2013-07-05 09:39:00,
2013-07-05 02:49:00,56.3,51.8,29.97,WSW,244,0.0,0.0,85,0.00,,,0.00,0,Wunderground v.1.15,2013-07-05 09:49:00,
2013-07-05 03:04:00,56.2,51.7,29.97,WSW,244,0.0,0.0,85,0.00,,,0.00,0,Wunderground v.1.15,2013-07-05 10:04:00,
2013-07-05 03:13:00,56.2,52.1,29.97,WSW,244,0.0,0.0,86,0.00,,,0.00,0,Wunderground v.1.15,2013-07-05 10:13:00,
2013-07-05 03:23:00,56.3,51.8,29.97,WSW,244,0.0,0.0,85,0.00,,,0.00,0,Wunderground v.1.15,2013-07-05 10:23:00,
2013-07-05 03:29:00,56.5,52.0,29.97,WSW,244,0.0,0.0,85,0.00,,,0.00,0,Wunderground v.1.15,2013-07-05 10:29:00,
2013-07-05 03:53:00,55.9,51.8,29.97,WSW,243,0.0,0.0,86,0.00,,,0.00,0,Wunderground v.1.15,2013-07-05 10:53:00,
2013-07-05 04:03:00,55.7,51.6,29.97,WSW,244,0.0,0.0,86,0.00,,,0.00,0,Wunderground v.1.15,2013-07-05 11:03:00,
2013-07-05 04:09:00,55.7,51.9,29.97,WSW,244,0.0,0.0,87,0.00,,,0.00,0,Wunderground v.1.15,2013-07-05 11:09:00,
2013-07-05 04:14:00,55.7,51.9,29.97,WSW,244,0.0,0.0,87,0.00,,,0.00,0,Wunderground v.1.15,2013-07-05 11:14:00,
2013-07-05 04:19:00,55.7,51.9,29.97,WSW,244,0.0,0.0,87,0.00,,,0.00,0,Wunderground v.1.15,2013-07-05 11:19:00,
2013-07-05 04:29:00,55.7,52.2,29.97,WSW,244,0.0,0.0,88,0.00,,,0.00,0,Wunderground v.1.15,2013-07-05 11:29:00,
2013-07-05 04:39:00,55.7,52.5,29.97,WSW,243,0.0,0.0,89,0.00,,,0.00,0,Wunderground v.1.15,2013-07-05 11:39:00,
2013-07-05 04:49:00,55.7,52.5,29.96,WSW,244,0.0,0.0,89,0.00,,,0.00,0,Wunderground v.1.15,2013-07-05 11:49:00,
2013-07-05 04:59:00,55.7,52.8,29.96,WSW,244,0.0,0.0,90,0.00,,,0.00,0,Wunderground v.1.15,2013-07-05 11:59:00,
2013-07-05 05:08:00,55.7,52.8,29.96,WSW,244,0.0,0.0,90,0.00,,,0.00,0,Wunderground v.1.15,2013-07-05 12:08:00,
2013-07-05 05:19:00,55.7,53.1,29.97,WSW,243,0.0,0.0,91,0.00,,,0.00,5,Wunderground v.1.15,2013-07-05 12:19:00,
2013-07-05 05:29:00,55.7,53.1,29.97,WSW,244,0.0,0.0,91,0.00,,,0.00,7,Wunderground v.1.15,2013-07-05 12:29:00,
2013-07-05 05:39:00,55.7,53.1,29.96,WSW,244,0.0,2.0,91,0.00,,,0.00,11,Wunderground v.1.15,2013-07-05 12:39:00,
2013-07-05 05:49:00,55.7,53.1,29.97,WSW,244,0.0,0.0,91,0.00,,,0.00,12,Wunderground v.1.15,2013-07-05 12:49:00,
2013-07-05 06:03:00,56.0,53.1,29.97,SW,219,1.0,1.0,90,0.00,,,0.00,25,Wunderground v.1.15,2013-07-05 13:03:00,
2013-07-05 06:09:00,56.3,53.4,29.97,SW,215,1.0,1.0,90,0.00,,,0.00,23,Wunderground v.1.15,2013-07-05 13:09:00,
2013-07-05 06:19:00,56.5,53.3,29.97,South,191,1.0,1.0,89,0.00,,,0.00,18,Wunderground v.1.15,2013-07-05 13:19:00,
2013-07-05 06:44:00,56.6,53.4,29.97,SSW,192,2.0,2.0,89,0.00,,,0.00,30,Wunderground v.1.15,2013-07-05 13:44:00,
2013-07-05 06:49:00,56.6,53.4,29.97,SSW,196,3.0,5.0,89,0.00,,,0.00,35,Wunderground v.1.15,2013-07-05 13:49:00,
2013-07-05 06:59:00,56.6,53.4,29.97,SSW,202,3.0,3.0,89,0.00,,,0.00,49,Wunderground v.1.15,2013-07-05 13:59:00,
2013-07-05 07:08:00,56.9,53.7,29.97,SSW,200,1.0,3.0,89,0.00,,,0.00,55,Wunderground v.1.15,2013-07-05 14:08:00,
2013-07-05 07:18:00,56.9,53.4,29.98,South,191,1.0,1.0,88,0.00,,,0.00,60,Wunderground v.1.15,2013-07-05 14:18:00,
2013-07-05 07:23:00,56.9,53.1,29.98,South,188,1.0,8.0,87,0.00,,,0.00,58,Wunderground v.1.15,2013-07-05 14:23:00,
2013-07-05 07:28:00,56.7,53.2,29.98,South,189,3.0,8.0,88,0.00,,,0.00,53,Wunderground v.1.15,2013-07-05 14:28:00,
2013-07-05 07:39:00,57.0,53.5,29.98,SSW,192,1.0,2.0,88,0.00,,,0.00,97,Wunderground v.1.15,2013-07-05 14:39:00,
2013-07-05 07:49:00,57.3,53.5,29.98,South,172,1.0,3.0,87,0.00,,,0.00,99,Wunderground v.1.15,2013-07-05 14:49:00,
2013-07-05 07:59:00,57.5,53.3,29.98,South,188,2.0,2.0,86,0.00,,,0.00,114,Wunderground v.1.15,2013-07-05 14:59:00,
2013-07-05 08:09:00,57.8,53.6,29.98,South,188,0.0,1.0,86,0.00,,,0.00,120,Wunderground v.1.15,2013-07-05 15:09:00,
2013-07-05 08:19:00,58.4,53.9,29.98,South,186,1.0,1.0,85,0.00,,,0.00,408,Wunderground v.1.15,2013-07-05 15:19:00,
2013-07-05 08:34:00,60.1,53.6,29.98,South,181,1.0,2.0,79,0.00,,,0.00,408,Wunderground v.1.15,2013-07-05 15:34:00,
2013-07-05 08:39:00,60.5,53.6,29.98,South,182,1.0,2.0,78,0.00,,,0.00,435,Wunderground v.1.15,2013-07-05 15:39:00,
2013-07-05 08:49:00,62.1,53.7,29.98,SE,144,1.0,3.0,74,0.00,,,0.00,496,Wunderground v.1.15,2013-07-05 15:49:00,
2013-07-05 09:04:00,61.8,53.4,29.98,SSW,192,2.0,3.0,74,0.00,,,0.00,484,Wunderground v.1.15,2013-07-05 16:04:00,
2013-07-05 09:13:00,61.8,53.4,29.98,South,191,2.0,5.0,74,0.00,,,0.00,501,Wunderground v.1.15,2013-07-05 16:13:00,
2013-07-05 09:18:00,61.6,53.2,29.98,South,189,2.0,5.0,74,0.00,,,0.00,521,Wunderground v.1.15,2013-07-05 16:18:00,
2013-07-05 09:29:00,62.6,53.1,29.98,SSW,198,2.0,2.0,71,0.00,,,0.00,556,Wunderground v.1.15,2013-07-05 16:29:00,
2013-07-05 09:43:00,63.4,53.8,29.98,South,186,1.0,3.0,71,0.00,,,0.00,482,Wunderground v.1.15,2013-07-05 16:43:00,
2013-07-05 09:49:00,63.4,53.8,29.98,South,186,1.0,3.0,71,0.00,,,0.00,301,Wunderground v.1.15,2013-07-05 16:49:00,
2013-07-05 09:59:00,63.7,54.1,29.98,South,188,1.0,1.0,71,0.00,,,0.00,329,Wunderground v.1.15,2013-07-05 16:59:00,
2013-07-05 10:09:00,64.0,54.0,29.98,SSW,196,1.0,2.0,70,0.00,,,0.00,285,Wunderground v.1.15,2013-07-05 17:09:00,
2013-07-05 10:23:00,63.2,53.6,29.98,SSW,196,2.0,2.0,71,0.00,,,0.00,313,Wunderground v.1.15,2013-07-05 17:23:00,
2013-07-05 10:29:00,62.7,53.5,29.98,SSW,202,2.0,7.0,72,0.00,,,0.00,324,Wunderground v.1.15,2013-07-05 17:29:00,
2013-07-05 10:40:00,62.9,53.7,29.97,SSW,199,1.0,2.0,72,0.00,,,0.00,517,Wunderground v.1.15,2013-07-05 17:40:00,
2013-07-05 10:49:00,63.7,53.7,29.97,South,179,1.0,1.0,70,0.00,,,0.00,382,Wunderground v.1.15,2013-07-05 17:49:00,
2013-07-05 11:04:00,64.5,53.3,29.97,SSW,198,2.0,5.0,67,0.00,,,0.00,461,Wunderground v.1.15,2013-07-05 18:04:00,
2013-07-05 11:18:00,66.4,53.0,29.97,SSW,200,2.0,6.0,62,0.00,,,0.00,473,Wunderground v.1.15,2013-07-05 18:18:00,
2013-07-05 11:29:00,66.9,53.5,29.97,SSW,196,2.0,2.0,62,0.00,,,0.00,934,Wunderground v.1.15,2013-07-05 18:29:00,
2013-07-05 11:39:00,68.6,53.7,29.96,South,185,1.0,1.0,59,0.00,,,0.00,874,Wunderground v.1.15,2013-07-05 18:39:00,
2013-07-05 11:49:00,67.9,54.0,29.96,South,176,2.0,2.0,61,0.00,,,0.00,860,Wunderground v.1.15,2013-07-05 18:49:00,
2013-07-05 11:59:00,68.9,54.0,29.96,SSE,165,2.0,2.0,59,0.00,,,0.00,878,Wunderground v.1.15,2013-07-05 18:59:00,
2013-07-05 12:13:00,69.4,53.0,29.96,SE,136,2.0,2.0,56,0.00,,,0.00,999,Wunderground v.1.15,2013-07-05 19:13:00,
2013-07-05 12:19:00,69.4,53.0,29.96,South,185,2.0,2.0,56,0.00,,,0.00,999,Wunderground v.1.15,2013-07-05 19:19:00,
2013-07-05 12:29:00,68.8,52.0,29.96,SSW,203,2.0,2.0,55,0.00,,,0.00,343,Wunderground v.1.15,2013-07-05 19:29:00,
2013-07-05 12:34:00,69.3,53.4,29.96,SSW,199,1.0,1.0,57,0.00,,,0.00,343,Wunderground v.1.15,2013-07-05 19:34:00,
2013-07-05 12:39:00,70.9,52.9,29.96,South,181,1.0,2.0,53,0.00,,,0.00,693,Wunderground v.1.15,2013-07-05 19:39:00,
2013-07-05 12:49:00,71.1,53.1,29.96,South,185,2.0,3.0,53,0.00,,,0.00,980,Wunderground v.1.15,2013-07-05 19:49:00,
2013-07-05 13:00:00,69.9,52.0,29.96,South,181,3.0,3.0,53,0.00,,,0.00,959,Wunderground v.1.15,2013-07-05 20:00:00,
2013-07-05 13:09:00,70.8,53.3,29.96,SSE,155,2.0,4.0,54,0.00,,,0.00,996,Wunderground v.1.15,2013-07-05 20:09:00,
2013-07-05 13:18:00,72.1,53.0,29.96,South,181,2.0,2.0,51,0.00,,,0.00,908,Wunderground v.1.15,2013-07-05 20:18:00,
2013-07-05 13:29:00,73.0,52.1,29.96,SSW,195,1.0,4.0,48,0.00,,,0.00,922,Wunderground v.1.15,2013-07-05 20:29:00,
2013-07-05 13:39:00,72.0,52.9,29.95,South,188,2.0,2.0,51,0.00,,,0.00,918,Wunderground v.1.15,2013-07-05 20:39:00,
2013-07-05 13:49:00,70.9,53.4,29.95,South,179,3.0,11.0,54,0.00,,,0.00,899,Wunderground v.1.15,2013-07-05 20:49:00,
2013-07-05 13:59:00,72.8,53.1,29.95,SSE,165,1.0,6.0,50,0.00,,,0.00,896,Wunderground v.1.15,2013-07-05 20:59:00,
2013-07-05 14:09:00,72.5,52.8,29.95,South,172,2.0,5.0,50,0.00,,,0.00,874,Wunderground v.1.15,2013-07-05 21:09:00,
2013-07-05 14:19:00,72.8,53.6,29.95,South,185,2.0,5.0,51,0.00,,,0.00,871,Wunderground v.1.15,2013-07-05 21:19:00,
2013-07-05 14:29:00,72.8,53.1,29.95,SSW,192,2.0,3.0,50,0.00,,,0.00,859,Wunderground v.1.15,2013-07-05 21:29:00,
2013-07-05 14:39:00,73.3,53.0,29.94,South,175,1.0,1.0,49,0.00,,,0.00,852,Wunderground v.1.15,2013-07-05 21:39:00,
2013-07-05 14:44:00,73.5,53.7,29.94,WSW,256,1.0,3.0,50,0.00,,,0.00,855,Wunderground v.1.15,2013-07-05 21:44:00,
2013-07-05 14:49:00,73.5,53.2,29.94,SSW,200,2.0,5.0,49,0.00,,,0.00,878,Wunderground v.1.15,2013-07-05 21:49:00,
2013-07-05 15:04:00,72.1,53.5,29.94,SE,138,4.0,4.0,52,0.00,,,0.00,829,Wunderground v.1.15,2013-07-05 22:04:00,
2013-07-05 15:09:00,72.3,53.7,29.94,SSW,192,3.0,4.0,52,0.00,,,0.00,832,Wunderground v.1.15,2013-07-05 22:09:00,
2013-07-05 15:18:00,74.0,53.6,29.94,South,188,1.0,2.0,49,0.00,,,0.00,822,Wunderground v.1.15,2013-07-05 22:18:00,
2013-07-05 15:29:00,73.5,53.7,29.94,South,186,3.0,3.0,50,0.00,,,0.00,772,Wunderground v.1.15,2013-07-05 22:29:00,
2013-07-05 15:43:00,71.8,54.8,29.93,South,182,5.0,5.0,55,0.00,,,0.00,748,Wunderground v.1.15,2013-07-05 22:43:00,
2013-07-05 15:49:00,71.8,54.8,29.93,SSE,168,5.0,5.0,55,0.00,,,0.00,734,Wunderground v.1.15,2013-07-05 22:49:00,
2013-07-05 15:59:00,73.0,54.9,29.93,SSE,150,3.0,5.0,53,0.00,,,0.00,716,Wunderground v.1.15,2013-07-05 22:59:00,
2013-07-05 16:09:00,73.0,54.9,29.93,South,184,3.0,6.0,53,0.00,,,0.00,697,Wunderground v.1.15,2013-07-05 23:09:00,
2013-07-05 16:19:00,71.3,54.3,29.92,SSW,203,6.0,8.0,55,0.00,,,0.00,674,Wunderground v.1.15,2013-07-05 23:19:00,
2013-07-05 16:29:00,71.8,53.7,29.92,South,188,4.0,6.0,53,0.00,,,0.00,648,Wunderground v.1.15,2013-07-05 23:29:00,
2013-07-05 16:39:00,72.0,53.9,29.92,SE,136,4.0,4.0,53,0.00,,,0.00,623,Wunderground v.1.15,2013-07-05 23:39:00,
2013-07-05 16:50:00,72.1,54.0,29.92,South,185,3.0,3.0,53,0.00,,,0.00,595,Wunderground v.1.15,2013-07-05 23:50:00,
2013-07-05 16:59:00,73.0,54.9,29.92,SSE,168,3.0,3.0,53,0.00,,,0.00,574,Wunderground v.1.15,2013-07-05 23:59:00,
2013-07-05 17:13:00,74.9,54.4,29.91,South,191,1.0,1.0,49,0.00,,,0.00,551,Wunderground v.1.15,2013-07-06 00:13:00,
2013-07-05 17:19:00,74.9,53.9,29.91,South,179,1.0,2.0,48,0.00,,,0.00,545,Wunderground v.1.15,2013-07-06 00:19:00,
2013-07-05 17:39:00,73.7,54.4,29.91,South,178,3.0,3.0,51,0.00,,,0.00,475,Wunderground v.1.15,2013-07-06 00:39:00,
2013-07-05 17:49:00,74.7,54.3,29.90,WSW,248,1.0,1.0,49,0.00,,,0.00,447,Wunderground v.1.15,2013-07-06 00:49:00,
2013-07-05 17:59:00,73.3,55.1,29.90,South,182,2.0,2.0,53,0.00,,,0.00,421,Wunderground v.1.15,2013-07-06 00:59:00,
2013-07-05 18:13:00,72.3,54.2,29.90,South,182,3.0,3.0,53,0.00,,,0.00,382,Wunderground v.1.15,2013-07-06 01:13:00,
2013-07-05 18:19:00,72.1,54.5,29.90,SSW,200,3.0,3.0,54,0.00,,,0.00,364,Wunderground v.1.15,2013-07-06 01:19:00,
2013-07-05 18:29:00,72.1,54.5,29.90,SSW,192,3.0,7.0,54,0.00,,,0.00,338,Wunderground v.1.15,2013-07-06 01:29:00,
2013-07-05 18:39:00,72.0,54.4,29.90,SSW,200,3.0,3.0,54,0.00,,,0.00,308,Wunderground v.1.15,2013-07-06 01:39:00,
2013-07-05 18:49:00,72.0,54.4,29.90,SSW,200,3.0,7.0,54,0.00,,,0.00,282,Wunderground v.1.15,2013-07-06 01:49:00,
2013-07-05 18:59:00,71.3,54.3,29.90,South,182,4.0,5.0,55,0.00,,,0.00,255,Wunderground v.1.15,2013-07-06 01:59:00,
2013-07-05 19:10:00,71.1,54.1,29.89,SSW,198,3.0,3.0,55,0.00,,,0.00,229,Wunderground v.1.15,2013-07-06 02:10:00,
2013-07-05 19:18:00,70.9,53.9,29.89,South,178,3.0,6.0,55,0.00,,,0.00,202,Wunderground v.1.15,2013-07-06 02:18:00,
2013-07-05 19:29:00,72.0,54.4,29.89,SSE,147,0.0,2.0,54,0.00,,,0.00,157,Wunderground v.1.15,2013-07-06 02:29:00,
2013-07-05 19:39:00,71.8,54.3,29.89,SSE,157,0.0,0.0,54,0.00,,,0.00,39,Wunderground v.1.15,2013-07-06 02:39:00,
2013-07-05 19:53:00,69.9,54.0,29.89,South,179,2.0,3.0,57,0.00,,,0.00,40,Wunderground v.1.15,2013-07-06 02:53:00,
2013-07-05 19:59:00,69.8,53.9,29.89,South,179,1.0,3.0,57,0.00,,,0.00,35,Wunderground v.1.15,2013-07-06 02:59:00,
2013-07-05 20:03:00,69.8,53.9,29.89,WSW,257,0.0,1.0,57,0.00,,,0.00,37,Wunderground v.1.15,2013-07-06 03:03:00,
2013-07-05 20:09:00,69.6,53.7,29.89,WSW,258,0.0,1.0,57,0.00,,,0.00,39,Wunderground v.1.15,2013-07-06 03:09:00,
2013-07-05 20:24:00,69.3,53.9,29.89,WSW,243,1.0,1.0,58,0.00,,,0.00,32,Wunderground v.1.15,2013-07-06 03:24:00,
2013-07-05 20:29:00,68.8,53.4,29.89,SSW,200,1.0,2.0,58,0.00,,,0.00,26,Wunderground v.1.15,2013-07-06 03:29:00,
2013-07-05 20:39:00,68.3,53.4,29.89,SSW,199,1.0,1.0,59,0.00,,,0.00,30,Wunderground v.1.15,2013-07-06 03:39:00,
2013-07-05 20:54:00,67.8,53.4,29.89,SSW,199,1.0,1.0,60,0.00,,,0.00,16,Wunderground v.1.15,2013-07-06 03:54:00,
2013-07-05 21:00:00,67.6,53.7,29.89,SSW,198,0.0,1.0,61,0.00,,,0.00,12,Wunderground v.1.15,2013-07-06 04:00:00,
2013-07-05 21:04:00,67.6,53.7,29.89,SSW,198,0.0,1.0,61,0.00,,,0.00,11,Wunderground v.1.15,2013-07-06 04:04:00,
2013-07-05 21:09:00,67.3,53.8,29.89,SSW,198,0.0,1.0,62,0.00,,,0.00,7,Wunderground v.1.15,2013-07-06 04:09:00,
2013-07-05 21:14:00,67.3,53.8,29.89,SSW,198,0.0,0.0,62,0.00,,,0.00,5,Wunderground v.1.15,2013-07-06 04:14:00,
2013-07-05 21:23:00,66.9,53.9,29.90,SSW,198,0.0,0.0,63,0.00,,,0.00,0,Wunderground v.1.15,2013-07-06 04:23:00,
2013-07-05 21:28:00,66.8,54.2,29.90,SSW,198,0.0,0.0,64,0.00,,,0.00,0,Wunderground v.1.15,2013-07-06 04:28:00,
2013-07-05 21:39:00,66.4,54.3,29.90,SSW,198,0.0,0.0,65,0.00,,,0.00,0,Wunderground v.1.15,2013-07-06 04:39:00,
2013-07-05 21:53:00,66.0,54.3,29.90,SSW,198,0.0,0.0,66,0.00,,,0.00,0,Wunderground v.1.15,2013-07-06 04:53:00,
2013-07-05 21:59:00,65.8,54.5,29.90,SSW,198,0.0,0.0,67,0.00,,,0.00,0,Wunderground v.1.15,2013-07-06 04:59:00,
2013-07-05 22:09:00,65.5,54.7,29.90,SSW,198,0.0,0.0,68,0.00,,,0.00,0,Wunderground v.1.15,2013-07-06 05:09:00,
2013-07-05 22:19:00,65.3,54.5,29.90,SSW,198,0.0,0.0,68,0.00,,,0.00,0,Wunderground v.1.15,2013-07-06 05:19:00,
2013-07-05 22:29:00,65.2,54.8,29.90,SSW,198,0.0,0.0,69,0.00,,,0.00,0,Wunderground v.1.15,2013-07-06 05:29:00,
2013-07-05 22:39:00,65.2,54.8,29.90,SSW,198,0.0,0.0,69,0.00,,,0.00,0,Wunderground v.1.15,2013-07-06 05:39:00,
2013-07-05 22:49:00,65.0,54.6,29.90,SSW,198,0.0,0.0,69,0.00,,,0.00,0,Wunderground v.1.15,2013-07-06 05:49:00,
2013-07-05 22:59:00,64.8,54.8,29.90,SSW,196,0.0,0.0,70,0.00,,,0.00,0,Wunderground v.1.15,2013-07-06 05:59:00,
2013-07-05 23:09:00,64.8,54.4,29.90,SSW,206,0.0,0.0,69,0.00,,,0.00,0,Wunderground v.1.15,2013-07-06 06:09:00,
2013-07-05 23:19:00,64.5,54.5,29.90,SSW,206,0.0,0.0,70,0.00,,,0.00,0,Wunderground v.1.15,2013-07-06 06:19:00,
2013-07-05 23:30:00,64.0,54.8,29.90,South,186,0.0,0.0,72,0.00,,,0.00,0,Wunderground v.1.15,2013-07-06 06:30:00,
2013-07-05 23:40:00,63.5,55.1,29.90,South,191,0.0,0.0,74,0.00,,,0.00,0,Wunderground v.1.15,2013-07-06 06:40:00,
2013-07-05 23:54:00,63.2,54.8,29.90,SSW,192,0.0,0.0,74,0.00,,,0.00,0,Wunderground v.1.15,2013-07-06 06:54:00,